Location: Moscow
(55.7500°N, 37.5830°E)
Time: 20:46:06
(UTC+03:00)

Explorer 7 - Visible Passes

Search period start: 30 November 2021 00:00
Search period end: 10 December 2021 00:00
Orbit: 483 x 675 km, 50.3° (Epoch: 29 November)

Date Brightness Start Highest point End Pass type
(mag) Time Alt. Az. Time Alt. Az. Time Alt. Az.
02 Dec 9.9 06:35:28 10° SSE 06:37:07 12° SE 06:38:44 10° ESE visible
03 Dec 9.6 06:38:14 10° S 06:40:52 16° SSE 06:43:26 10° ESE visible
04 Dec 9.2 06:41:29 10° SSW 06:44:40 21° SSE 06:47:44 10° ESE visible
05 Dec 8.8 06:44:57 10° SW 06:48:30 26° SSE 06:51:52 10° ESE visible
06 Dec 9.5 05:11:27 12° SSE 05:12:43 14° SE 05:14:50 10° ESE visible
06 Dec 8.5 06:48:36 10° SW 06:52:21 30° SSE 06:55:55 10° ESE visible
07 Dec 9.1 05:15:49 17° SSE 05:16:28 18° SSE 05:19:20 10° ESE visible
07 Dec 8.2 06:52:20 10° SW 06:56:13 35° S 06:59:55 10° ESE visible
08 Dec 8.8 05:20:02 23° SSE 05:20:15 23° SSE 05:23:33 10° ESE visible
08 Dec 8.0 06:56:18 11° WSW 07:00:07 38° S 07:03:52 10° ESE visible
09 Dec 8.5 05:24:08 28° SSE 05:24:08 28° SSE 05:27:39 10° E visible
09 Dec 7.9 07:00:24 12° WSW 07:04:00 39° S 07:07:47 10° ESE visible
